| time (UTC) | temp C | wind direction | speed KPH | gust KPH | rain 1hr cm | rain 24hr cm | rain mn cm | humidity % | barometer mb |
| 20260507201603 | 17 | 261 | 11.3 | 29.0 | 0.00 | 0.74 | 0.56 | 31 | 1006.4 |
| 20260507195603 | 17 | 280 | 16.1 | 38.6 | 0.00 | 0.74 | 0.56 | 31 | 1006.4 |
| 20260507194603 | 18 | 282 | 25.7 | 35.4 | 0.00 | 0.74 | 0.56 | 29 | 1006.5 |
| 20260507193603 | 17 | 297 | 14.5 | 37.0 | 0.00 | 0.74 | 0.56 | 31 | 1006.6 |
| 20260507192623 | 17 | 293 | 24.1 | 32.2 | 0.00 | 0.74 | 0.56 | 30 | 1006.5 |
| 20260507191603 | 17 | 275 | 19.3 | 43.5 | 0.00 | 0.74 | 0.56 | 32 | 1006.7 |
| 20260507190623 | 17 | 275 | 20.9 | 41.8 | 0.00 | 0.74 | 0.56 | 33 | 1006.6 |
| 20260507183602 | 17 | 314 | 22.5 | 35.4 | 0.00 | 0.74 | 0.56 | 35 | 1007.1 |
| 20260507181644 | 17 | 319 | 16.1 | 37.0 | 0.00 | 0.74 | 0.56 | 36 | 1007.0 |
| 20260507180603 | 17 | 286 | 30.6 | 40.2 | 0.00 | 0.74 | 0.56 | 36 | 1007.0 |
| 20260507175602 | 17 | 290 | 12.9 | 25.7 | 0.00 | 0.74 | 0.56 | 35 | 1007.3 |
| 20260507174603 | 17 | 294 | 25.7 | 33.8 | 0.00 | 0.74 | 0.56 | 40 | 1007.1 |
| 20260507173602 | 17 | 270 | 22.5 | 38.6 | 0.00 | 0.74 | 0.56 | 42 | 1007.1 |
| 20260507172603 | 16 | 261 | 24.1 | 33.8 | 0.00 | 0.74 | 0.56 | 41 | 1007.3 |
| 20260507171644 | 16 | 279 | 14.5 | 37.0 | 0.00 | 0.74 | 0.56 | 43 | 1007.5 |
| 20260507170603 | 16 | 290 | 24.1 | 30.6 | 0.00 | 0.74 | 0.56 | 42 | 1007.4 |
| 20260507165603 | 16 | 285 | 20.9 | 35.4 | 0.00 | 0.74 | 0.56 | 45 | 1007.6 |
| 20260507163602 | 16 | 265 | 12.9 | 33.8 | 0.00 | 0.74 | 0.56 | 47 | 1007.7 |
| 20260507162603 | 16 | 288 | 22.5 | 33.8 | 0.00 | 0.74 | 0.56 | 50 | 1007.7 |
| 20260507161602 | 16 | 272 | 17.7 | 32.2 | 0.00 | 0.74 | 0.56 | 53 | 1007.9 |
| 20260507160624 | 15 | 273 | 22.5 | 30.6 | 0.00 | 0.74 | 0.56 | 57 | 1008.0 |
| 20260507155603 | 15 | 309 | 12.9 | 24.1 | 0.00 | 0.74 | 0.56 | 58 | 1008.0 |
| 20260507153603 | 15 | 271 | 16.1 | 30.6 | 0.00 | 0.74 | 0.56 | 63 | 1008.3 |
| 20260507152603 | 14 | 284 | 20.9 | 32.2 | 0.00 | 0.74 | 0.56 | 59 | 1008.3 |
| 20260507151645 | 14 | 288 | 12.9 | 20.9 | 0.00 | 0.74 | 0.56 | 62 | 1008.2 |
| 20260507150624 | 13 | 308 | 9.7 | 19.3 | 0.00 | 0.74 | 0.56 | 65 | 1008.4 |
| 20260507145603 | 14 | 317 | 14.5 | 20.9 | 0.00 | 0.74 | 0.56 | 60 | 1008.5 |
| 20260507144603 | 14 | 316 | 16.1 | 24.1 | 0.00 | 0.74 | 0.56 | 61 | 1008.4 |
| 20260507143603 | 13 | 312 | 17.7 | 24.1 | 0.00 | 0.74 | 0.56 | 65 | 1008.7 |
| 20260507142602 | 13 | 298 | 11.3 | 17.7 | 0.00 | 0.74 | 0.56 | 67 | 1008.9 |
| 20260507141603 | 13 | 324 | 14.5 | 25.7 | 0.00 | 0.74 | 0.56 | 68 | 1008.8 |
| 20260507140602 | 13 | 308 | 17.7 | 29.0 | 0.00 | 0.74 | 0.56 | 72 | 1008.6 |
| 20260507135645 | 12 | 316 | 9.7 | 25.7 | 0.00 | 0.74 | 0.56 | 75 | 1008.9 |
| 20260507134603 | 12 | 323 | 17.7 | 25.7 | 0.00 | 0.74 | 0.56 | 75 | 1008.7 |
| 20260507133602 | 12 | 325 | 9.7 | 20.9 | 0.00 | 0.74 | 0.56 | 79 | 1008.9 |
| 20260507132602 | 11 | 324 | 12.9 | 19.3 | 0.00 | 0.74 | 0.56 | 86 | 1008.8 |
| 20260507131603 | 11 | 302 | 12.9 | 22.5 | 0.00 | 0.74 | 0.56 | 90 | 1008.7 |
| 20260507130602 | 10 | 309 | 12.9 | 27.4 | 0.00 | 0.74 | 0.56 | 92 | 1009.0 |
| 20260507125603 | 10 | 303 | 11.3 | 20.9 | 0.00 | 0.74 | 0.56 | 95 | 1008.8 |
| 20260507123603 | 9 | 301 | 12.9 | 19.3 | 0.00 | 0.74 | 0.56 | 96 | 1009.0 |
| 20260507122603 | 8 | 294 | 14.5 | 22.5 | 0.00 | 0.74 | 0.56 | 96 | 1009.3 |
| 20260507121603 | 8 | 291 | 14.5 | 20.9 | 0.00 | 0.74 | 0.56 | 96 | 1009.0 |
| 20260507120602 | 8 | 301 | 14.5 | 22.5 | 0.00 | 0.74 | 0.56 | 96 | 1008.6 |
| 20260507115603 | 8 | 295 | 14.5 | 22.5 | 0.00 | 0.74 | 0.56 | 96 | 1008.7 |
| 20260507114602 | 8 | 302 | 14.5 | 19.3 | 0.00 | 0.74 | 0.56 | 96 | 1008.7 |
| 20260507113624 | 8 | 297 | 12.9 | 19.3 | 0.00 | 0.74 | 0.56 | 96 | 1008.8 |
| 20260507112602 | 7 | 305 | 12.9 | 19.3 | 0.00 | 0.74 | 0.56 | 96 | 1008.6 |
| 20260507111603 | 7 | 304 | 11.3 | 19.3 | 0.00 | 0.74 | 0.56 | 96 | 1008.6 |
| 20260507110602 | 7 | 316 | 12.9 | 16.1 | 0.00 | 0.74 | 0.56 | 96 | 1008.4 |
| 20260507105603 | 7 | 318 | 8.0 | 14.5 | 0.18 | 0.74 | 0.56 | 96 | 1008.5 |
| 20260507104602 | 7 | 317 | 12.9 | 19.3 | 0.18 | 0.74 | 0.56 | 96 | 1008.1 |
| 20260507103603 | 7 | 303 | 11.3 | 16.1 | 0.15 | 0.71 | 0.53 | 96 | 1008.6 |
| 20260507102602 | 7 | 287 | 11.3 | 14.5 | 0.08 | 0.64 | 0.46 | 95 | 1008.9 |
| 20260507101603 | 7 | 310 | 8.0 | 19.3 | 0.05 | 0.61 | 0.43 | 95 | 1008.6 |
| 20260507100602 | 7 | 314 | 16.1 | 24.1 | 0.03 | 0.58 | 0.41 | 95 | 1008.5 |
| 20260507095603 | 7 | 310 | 14.5 | 25.7 | 0.08 | 0.53 | 0.36 | 95 | 1008.5 |
| 20260507094603 | 7 | 320 | 14.5 | 27.4 | 0.08 | 0.53 | 0.36 | 95 | 1007.9 |
| 20260507093603 | 8 | 318 | 17.7 | 27.4 | 0.05 | 0.51 | 0.33 | 95 | 1008.2 |
| 20260507092603 | 8 | 316 | 16.1 | 24.1 | 0.03 | 0.48 | 0.30 | 95 | 1008.3 |
| 20260507091603 | 8 | 310 | 16.1 | 27.4 | 0.03 | 0.48 | 0.30 | 95 | 1007.9 |
| 20260507090602 | 8 | 321 | 22.5 | 32.2 | 0.03 | 0.48 | 0.30 | 94 | 1007.4 |
| 20260507085603 | 8 | 312 | 19.3 | 29.0 | 0.18 | 0.43 | 0.25 | 94 | 1007.6 |
| 20260507084602 | 8 | 307 | 17.7 | 25.7 | 0.15 | 0.41 | 0.23 | 94 | 1007.7 |
| 20260507083603 | 9 | 300 | 17.7 | 25.7 | 0.13 | 0.38 | 0.20 | 94 | 1008.0 |
| 20260507082602 | 9 | 306 | 16.1 | 25.7 | 0.08 | 0.33 | 0.15 | 94 | 1007.5 |
| 20260507081603 | 9 | 320 | 17.7 | 25.7 | 0.05 | 0.30 | 0.13 | 93 | 1007.4 |
| 20260507080602 | 10 | 300 | 16.1 | 27.4 | 0.00 | 0.25 | 0.08 | 93 | 1008.0 |
| 20260507075603 | 10 | 301 | 16.1 | 29.0 | 0.05 | 0.23 | 0.05 | 92 | 1007.6 |
| 20260507074603 | 10 | 307 | 20.9 | 40.2 | 0.05 | 0.23 | 0.05 | 90 | 1007.6 |
| 20260507073603 | 11 | 305 | 22.5 | 32.2 | 0.00 | 0.18 | 0.00 | 89 | 1007.7 |
| 20260507072603 | 11 | 320 | 19.3 | 27.4 | 0.00 | 0.18 | 0.00 | 91 | 1006.8 |
| 20260507071623 | 11 | 311 | 19.3 | 24.1 | 0.00 | 0.18 | 0.00 | 92 | 1006.9 |
| 20260507070603 | 11 | 311 | 17.7 | 25.7 | 0.00 | 0.18 | 0.00 | 92 | 1006.7 |
| 20260507065602 | 11 | 315 | 16.1 | 27.4 | 0.00 | 0.18 | 0.00 | 92 | 1006.9 |
| 20260507064603 | 11 | 308 | 19.3 | 29.0 | 0.00 | 0.18 | 0.00 | 93 | 1006.9 |
| 20260507061603 | 11 | 291 | 16.1 | 25.7 | 0.00 | 0.18 | 0.00 | 94 | 1006.9 |
| 20260507060602 | 12 | 304 | 17.7 | 27.4 | 0.00 | 0.18 | 0.00 | 95 | 1007.1 |
| 20260507054603 | 12 | 301 | 17.7 | 27.4 | 0.00 | 0.18 | 0.00 | 96 | 1007.2 |
| 20260507053603 | 13 | 288 | 16.1 | 25.7 | 0.00 | 0.18 | 0.00 | 97 | 1007.5 |
| 20260507052623 | 13 | 285 | 17.7 | 27.4 | 0.00 | 0.18 | 0.00 | 97 | 1007.6 |
| 20260507051603 | 13 | 277 | 17.7 | 25.7 | 0.00 | 0.18 | 0.00 | 97 | 1007.5 |
| 20260507050602 | 13 | 275 | 14.5 | 24.1 | 0.00 | 0.18 | 0.00 | 97 | 1007.3 |
| 20260507045603 | 13 | 278 | 16.1 | 22.5 | 0.03 | 0.18 | 0.18 | 97 | 1007.5 |
| 20260507044602 | 13 | 269 | 16.1 | 25.7 | 0.03 | 0.18 | 0.18 | 97 | 1007.4 |
| 20260507043603 | 13 | 261 | 20.9 | 27.4 | 0.03 | 0.18 | 0.18 | 97 | 1007.5 |
| 20260507042602 | 13 | 252 | 16.1 | 25.7 | 0.03 | 0.18 | 0.18 | 97 | 1007.3 |
| 20260507041603 | 13 | 246 | 17.7 | 29.0 | 0.03 | 0.18 | 0.18 | 97 | 1007.4 |
| 20260507040644 | 13 | 246 | 17.7 | 25.7 | 0.00 | 0.15 | 0.15 | 97 | 1007.3 |
| 20260507035603 | 13 | 248 | 14.5 | 29.0 | 0.00 | 0.15 | 0.15 | 97 | 1007.5 |
| 20260507034602 | 13 | 230 | 20.9 | 33.8 | 0.00 | 0.15 | 0.15 | 97 | 1007.5 |
| 20260507032602 | 13 | 217 | 22.5 | 33.8 | 0.00 | 0.15 | 0.15 | 97 | 1007.4 |
| 20260507031624 | 13 | 222 | 22.5 | 32.2 | 0.00 | 0.15 | 0.15 | 97 | 1007.2 |
| 20260507030603 | 13 | 221 | 19.3 | 30.6 | 0.00 | 0.15 | 0.15 | 97 | 1007.1 |
| 20260507025603 | 13 | 215 | 20.9 | 32.2 | 0.00 | 0.15 | 0.15 | 97 | 1007.0 |
| 20260507024602 | 13 | 213 | 22.5 | 33.8 | 0.00 | 0.15 | 0.15 | 97 | 1006.9 |
| 20260507023603 | 13 | 212 | 22.5 | 35.4 | 0.00 | 0.15 | 0.15 | 97 | 1007.0 |
| 20260507021603 | 13 | 211 | 22.5 | 37.0 | 0.00 | 0.15 | 0.15 | 96 | 1007.0 |
| 20260507020602 | 13 | 209 | 24.1 | 35.4 | 0.00 | 0.15 | 0.15 | 96 | 1007.1 |
| 20260507015603 | 12 | 197 | 22.5 | 35.4 | 0.00 | 0.15 | 0.15 | 96 | 1007.0 |
| 20260507014602 | 12 | 198 | 22.5 | 38.6 | 0.00 | 0.15 | 0.15 | 96 | 1007.2 |
| 20260507013603 | 12 | 202 | 24.1 | 37.0 | 0.00 | 0.15 | 0.15 | 96 | 1007.3 |
| 20260507012603 | 12 | 205 | 22.5 | 33.8 | 0.00 | 0.15 | 0.15 | 96 | 1007.5 |
| 20260507011603 | 12 | 212 | 24.1 | 35.4 | 0.00 | 0.15 | 0.15 | 96 | 1007.6 |
| 20260507010603 | 12 | 212 | 20.9 | 32.2 | 0.00 | 0.15 | 0.15 | 96 | 1007.6 |
| 20260507005603 | 12 | 216 | 24.1 | 37.0 | 0.00 | 0.15 | 0.15 | 96 | 1007.7 |
| 20260507004602 | 12 | 207 | 20.9 | 40.2 | 0.00 | 0.15 | 0.15 | 96 | 1007.6 |
| 20260507002624 | 12 | 201 | 29.0 | 54.7 | 0.00 | 0.15 | 0.15 | 96 | 1007.4 |
| 20260507001602 | 12 | 192 | 32.2 | 49.9 | 0.00 | 0.15 | 0.15 | 96 | 1007.4 |
| 20260507000603 | 12 | 200 | 27.4 | 51.5 | 0.00 | 0.15 | 0.15 | 96 | 1007.3 |
| 20260506235624 | 12 | 195 | 29.0 | 53.1 | 0.00 | 0.15 | 0.15 | 96 | 1007.3 |
| 20260506234624 | 12 | 191 | 33.8 | 53.1 | 0.00 | 0.15 | 0.15 | 96 | 1007.2 |
| 20260506233603 | 12 | 193 | 30.6 | 53.1 | 0.00 | 0.15 | 0.15 | 95 | 1007.1 |
| 20260506232602 | 12 | 191 | 32.2 | 49.9 | 0.00 | 0.15 | 0.15 | 95 | 1007.2 |
| 20260506231603 | 12 | 184 | 35.4 | 56.3 | 0.00 | 0.15 | 0.15 | 95 | 1007.2 |
| 20260506230602 | 12 | 193 | 27.4 | 45.1 | 0.00 | 0.15 | 0.15 | 95 | 1007.3 |
| 20260506225602 | 12 | 191 | 25.7 | 46.7 | 0.03 | 0.15 | 0.15 | 95 | 1007.4 |
| 20260506224603 | 13 | 188 | 24.1 | 49.9 | 0.03 | 0.15 | 0.15 | 95 | 1007.3 |
| 20260506223602 | 13 | 188 | 25.7 | 57.9 | 0.03 | 0.15 | 0.15 | 95 | 1007.4 |
| 20260506222645 | 13 | 189 | 24.1 | 54.7 | 0.00 | 0.13 | 0.13 | 95 | 1007.6 |
| 20260506221603 | 13 | 187 | 30.6 | 49.9 | 0.00 | 0.13 | 0.13 | 94 | 1007.6 |
| 20260506220603 | 13 | 188 | 29.0 | 56.3 | 0.00 | 0.13 | 0.13 | 94 | 1007.8 |
| 20260506215602 | 13 | 194 | 32.2 | 51.5 | 0.05 | 0.13 | 0.13 | 94 | 1007.8 |
| 20260506214603 | 13 | 196 | 29.0 | 46.7 | 0.03 | 0.10 | 0.10 | 94 | 1007.9 |
| 20260506213602 | 13 | 191 | 30.6 | 49.9 | 0.03 | 0.10 | 0.10 | 93 | 1007.9 |
| 20260506212602 | 13 | 197 | 30.6 | 54.7 | 0.03 | 0.10 | 0.10 | 93 | 1007.9 |
| 20260506211624 | 13 | 192 | 27.4 | 57.9 | 0.03 | 0.10 | 0.10 | 93 | 1008.0 |
| 20260506210602 | 14 | 198 | 32.2 | 45.1 | 0.00 | 0.08 | 0.08 | 92 | 1008.0 |
| 20260506205603 | 14 | 192 | 32.2 | 59.5 | 0.05 | 0.05 | 0.05 | 91 | 1008.1 |
| 20260506204602 | 14 | 192 | 32.2 | 53.1 | 0.03 | 0.03 | 0.03 | 90 | 1008.0 |
| 20260506203603 | 15 | 195 | 29.0 | 53.1 | 0.03 | 0.03 | 0.03 | 90 | 1008.3 |
| 20260506202602 | 15 | 193 | 38.6 | 57.9 | 0.00 | 0.00 | 0.00 | 89 | 1008.3 |